sat.trackr.live / text

‹ back to catalog

IRIDIUM 137

NORAD 43076 · 2017-083G

PAYLOAD ACTIVE UNKNOWN

§ Identity

Operator
Country
US
Launch date
2017-12-23
Launch site
AFWTR
Launch vehicle
Mass (kg)
RCS (m²)

Purposes: comms

External: N2YO · Heavens-Above · Gunter

§ Orbital elements

Epoch: 2026-05-24T23:25:02.910432Z

Period
100.40 min
Inclination
86.3961°
Eccentricity
0.0001718
Mean motion
14.34218271 rev/d
Perigee alt
776.4 km
Apogee alt
778.9 km
Semi-major
7,155.8 km
B*
1.2705e-5
RAAN
331.8673°
Arg perigee
93.7727°
Mean anomaly
266.3666°
Rev number
44,084

§ Raw data

IRIDIUM 1371 43076U 17083G   26144.97572813  .00000055  00000+0  12705-4 0  99962 43076  86.3961 331.8673 0001718  93.7727 266.3666 14.34218271440846

JSON: /api/v1/satellites/43076 · /tle

For live sub-satellite position, see the globe view (requires WebGL).

§ Visibility from observer

Set your observer location to see the next 7 days of passes ≥ 10°. The values pass through the URL so the page stays shareable.

No JS? Fill the form by hand. The geolocation button needs JavaScript.